| time (UTC) | temp C | wind direction | speed KPH | gust KPH | rain 1hr cm | rain 24hr cm | rain mn cm | humidity % | barometer mb |
| 20260505060019 | 17 | 177 | 3.2 | 4.8 | 0.00 | 0.00 | 0.00 | 49 | 1013.5 |
| 20260505055019 | 17 | 143 | 1.6 | 4.8 | 0.00 | 0.00 | 0.00 | 52 | 1013.6 |
| 20260505054019 | 17 | 225 | 3.2 | 4.8 | 0.00 | 0.00 | 0.00 | 53 | 1013.4 |
| 20260505053019 | 16 | 132 | 3.2 | 6.4 | 0.00 | 0.00 | 0.00 | 54 | 1013.4 |
| 20260505052017 | 15 | 260 | 0.0 | 1.6 | 0.00 | 0.00 | 0.00 | 57 | 1013.3 |
| 20260505051019 | 15 | 297 | 0.0 | 1.6 | 0.00 | 0.00 | 0.00 | 56 | 1013.2 |
| 20260505041020 | 13 | 42 | 4.8 | 9.7 | 0.00 | 0.00 | 0.00 | 54 | 1013.3 |
| 20260505040020 | 13 | 151 | 3.2 | 8.0 | 0.00 | 0.00 | 0.00 | 54 | 1013.2 |
| 20260505035019 | 13 | 96 | 3.2 | 6.4 | 0.00 | 0.00 | 0.00 | 54 | 1013.2 |
| 20260505034019 | 13 | 115 | 3.2 | 6.4 | 0.00 | 0.00 | 0.00 | 54 | 1013.1 |
| 20260505033018 | 12 | 161 | 3.2 | 8.0 | 0.00 | 0.00 | 0.00 | 55 | 1013.0 |
| 20260505032019 | 12 | 64 | 3.2 | 6.4 | 0.00 | 0.00 | 0.00 | 56 | 1013.1 |
| 20260505031100 | 12 | 250 | 0.0 | 6.4 | 0.00 | 0.00 | 0.00 | 55 | 1013.0 |
| 20260505030018 | 12 | 101 | 3.2 | 9.7 | 0.00 | 0.00 | 0.00 | 54 | 1013.0 |
| 20260505025040 | 12 | 42 | 4.8 | 6.4 | 0.00 | 0.00 | 0.00 | 54 | 1012.9 |
| 20260505024020 | 12 | 38 | 3.2 | 6.4 | 0.00 | 0.00 | 0.00 | 55 | 1013.0 |
| 20260505023019 | 12 | 61 | 1.6 | 6.4 | 0.00 | 0.00 | 0.00 | 55 | 1012.9 |
| 20260505022020 | 12 | 126 | 3.2 | 6.4 | 0.00 | 0.00 | 0.00 | 54 | 1013.0 |
| 20260505021020 | 13 | 118 | 1.6 | 6.4 | 0.00 | 0.00 | 0.00 | 54 | 1013.0 |
| 20260505020020 | 13 | 105 | 4.8 | 11.3 | 0.00 | 0.00 | 0.00 | 53 | 1012.8 |
| 20260505015020 | 12 | 25 | 6.4 | 12.9 | 0.00 | 0.00 | 0.00 | 54 | 1013.0 |
| 20260505014019 | 12 | 81 | 3.2 | 6.4 | 0.00 | 0.00 | 0.00 | 54 | 1012.9 |
| 20260505013059 | 12 | 101 | 3.2 | 6.4 | 0.00 | 0.00 | 0.00 | 54 | 1012.9 |
| 20260505012019 | 13 | 114 | 4.8 | 6.4 | 0.00 | 0.00 | 0.00 | 53 | 1012.8 |
| 20260505011020 | 12 | 100 | 1.6 | 3.2 | 0.00 | 0.00 | 0.00 | 54 | 1012.9 |
| 20260505010040 | 13 | 116 | 0.0 | 3.2 | 0.00 | 0.00 | 0.00 | 53 | 1012.8 |
| 20260505005019 | 13 | 118 | 3.2 | 3.2 | 0.00 | 0.00 | 0.00 | 53 | 1012.8 |
| 20260505004019 | 13 | 118 | 3.2 | 4.8 | 0.00 | 0.00 | 0.00 | 52 | 1012.9 |
| 20260505003020 | 13 | 114 | 6.4 | 9.7 | 0.00 | 0.00 | 0.00 | 51 | 1012.9 |
| 20260505002020 | 13 | 115 | 4.8 | 6.4 | 0.00 | 0.00 | 0.00 | 52 | 1012.9 |
| 20260505001019 | 13 | 109 | 3.2 | 6.4 | 0.00 | 0.00 | 0.00 | 51 | 1012.9 |
| 20260505000019 | 13 | 106 | 4.8 | 6.4 | 0.00 | 0.00 | 0.00 | 51 | 1013.0 |
| 20260504235021 | 13 | 106 | 6.4 | 9.7 | 0.00 | 0.00 | 0.00 | 50 | 1013.0 |
| 20260504234018 | 13 | 101 | 3.2 | 4.8 | 0.00 | 0.00 | 0.00 | 51 | 1013.1 |
| 20260504233019 | 14 | 114 | 4.8 | 8.0 | 0.00 | 0.00 | 0.00 | 50 | 1013.1 |
| 20260504232020 | 13 | 114 | 4.8 | 8.0 | 0.00 | 0.00 | 0.00 | 50 | 1013.2 |
| 20260504231020 | 14 | 120 | 3.2 | 6.4 | 0.00 | 0.00 | 0.00 | 50 | 1013.3 |
| 20260504230019 | 14 | 118 | 3.2 | 4.8 | 0.00 | 0.00 | 0.00 | 51 | 1013.2 |
| 20260504225020 | 14 | 116 | 1.6 | 3.2 | 0.00 | 0.00 | 0.00 | 50 | 1013.2 |
| 20260504224021 | 15 | 130 | 4.8 | 8.0 | 0.00 | 0.00 | 0.00 | 48 | 1013.1 |
| 20260504223019 | 15 | 127 | 4.8 | 6.4 | 0.00 | 0.00 | 0.00 | 48 | 1013.2 |
| 20260504222020 | 15 | 125 | 4.8 | 8.0 | 0.00 | 0.00 | 0.00 | 49 | 1013.3 |
| 20260504221019 | 15 | 129 | 3.2 | 6.4 | 0.00 | 0.00 | 0.00 | 49 | 1013.2 |
| 20260504220019 | 15 | 147 | 4.8 | 6.4 | 0.00 | 0.00 | 0.00 | 48 | 1013.3 |
| 20260504215019 | 15 | 146 | 3.2 | 4.8 | 0.00 | 0.00 | 0.00 | 49 | 1013.3 |
| 20260504214018 | 15 | 164 | 3.2 | 4.8 | 0.00 | 0.00 | 0.00 | 49 | 1013.3 |
| 20260504213038 | 16 | 130 | 3.2 | 6.4 | 0.00 | 0.00 | 0.00 | 48 | 1013.3 |
| 20260504212017 | 16 | 154 | 3.2 | 6.4 | 0.00 | 0.00 | 0.00 | 47 | 1013.2 |
| 20260504211017 | 16 | 121 | 4.8 | 6.4 | 0.00 | 0.00 | 0.00 | 45 | 1013.2 |
| 20260504210018 | 17 | 125 | 3.2 | 6.4 | 0.00 | 0.00 | 0.00 | 45 | 1013.2 |
| 20260504205018 | 17 | 118 | 4.8 | 8.0 | 0.00 | 0.00 | 0.00 | 44 | 1013.2 |
| 20260504204017 | 17 | 113 | 4.8 | 6.4 | 0.00 | 0.00 | 0.00 | 45 | 1013.1 |
| 20260504203017 | 17 | 122 | 4.8 | 6.4 | 0.00 | 0.00 | 0.00 | 45 | 1013.1 |
| 20260504202017 | 17 | 119 | 4.8 | 6.4 | 0.00 | 0.00 | 0.00 | 45 | 1013.2 |
| 20260504201040 | 17 | 113 | 4.8 | 6.4 | 0.00 | 0.00 | 0.00 | 44 | 1013.2 |
| 20260504200026 | 18 | 120 | 3.2 | 6.4 | 0.00 | 0.00 | 0.00 | 43 | 1013.1 |
| 20260504195018 | 18 | 122 | 4.8 | 6.4 | 0.00 | 0.00 | 0.00 | 43 | 1013.0 |
| 20260504194018 | 18 | 114 | 3.2 | 4.8 | 0.00 | 0.00 | 0.00 | 43 | 1013.1 |
| 20260504193017 | 18 | 100 | 4.8 | 6.4 | 0.00 | 0.00 | 0.00 | 42 | 1013.0 |
| 20260504192016 | 18 | 95 | 4.8 | 6.4 | 0.00 | 0.00 | 0.00 | 42 | 1013.0 |
| 20260504191016 | 19 | 96 | 4.8 | 6.4 | 0.00 | 0.00 | 0.00 | 42 | 1012.8 |
| 20260504190017 | 19 | 107 | 4.8 | 6.4 | 0.00 | 0.00 | 0.00 | 41 | 1012.9 |
| 20260504185017 | 19 | 110 | 4.8 | 6.4 | 0.00 | 0.00 | 0.00 | 41 | 1012.8 |
| 20260504184017 | 19 | 109 | 4.8 | 6.4 | 0.00 | 0.00 | 0.00 | 41 | 1012.8 |
| 20260504183017 | 19 | 118 | 3.2 | 6.4 | 0.00 | 0.00 | 0.00 | 42 | 1012.7 |
| 20260504182017 | 20 | 123 | 3.2 | 4.8 | 0.00 | 0.00 | 0.00 | 42 | 1012.7 |
| 20260504181017 | 20 | 130 | 3.2 | 4.8 | 0.00 | 0.00 | 0.00 | 42 | 1012.5 |
| 20260504180018 | 20 | 145 | 0.0 | 3.2 | 0.00 | 0.00 | 0.00 | 41 | 1012.3 |
| 20260504175017 | 21 | 103 | 3.2 | 6.4 | 0.00 | 0.00 | 0.00 | 39 | 1012.3 |
| 20260504174017 | 21 | 86 | 4.8 | 6.4 | 0.00 | 0.00 | 0.00 | 39 | 1012.2 |
| 20260504173017 | 21 | 79 | 4.8 | 6.4 | 0.00 | 0.00 | 0.00 | 39 | 1012.2 |
| 20260504172016 | 21 | 88 | 3.2 | 6.4 | 0.00 | 0.00 | 0.00 | 39 | 1012.3 |
| 20260504171017 | 21 | 93 | 3.2 | 4.8 | 0.00 | 0.00 | 0.00 | 39 | 1012.1 |
| 20260504151019 | 25 | 50 | 6.4 | 12.9 | 0.00 | 0.00 | 0.00 | 33 | 1012.0 |
| 20260504140519 | 25 | 34 | 11.3 | 25.7 | 0.00 | 0.00 | 0.00 | 32 | 1012.4 |
| 20260504130519 | 25 | 28 | 12.9 | 20.9 | 0.00 | 0.00 | 0.00 | 30 | 1012.7 |
| 20260504110518 | 23 | 27 | 4.8 | 17.7 | 0.00 | 0.00 | 0.00 | 36 | 1013.7 |
| 20260504100520 | 21 | 22 | 6.4 | 12.9 | 0.00 | 0.00 | 0.00 | 39 | 1014.3 |
| 20260504081520 | 17 | 331 | 6.4 | 14.5 | 0.00 | 0.00 | 0.00 | 54 | 1014.7 |
| 20260504080519 | 17 | 329 | 6.4 | 16.1 | 0.00 | 0.00 | 0.00 | 56 | 1014.6 |